This demonstration page uses our WeatherBlox Daily Observations layout. Learn more.

Left ArrowRight Arrow

Hourly Observations for July 7, 2018

Temp ( °F °C ) Dew Point ( °F °C ) Humidity (%) Winds ( mph kmh ) Pressure ( in mb ) Visibility ( mi km ) Precip ( " mm )
12:15 am 00:15 Clear 73 23 70 21.3 90 90 SE 9 15 30.18 1022 10 16 N/A
12:35 am 00:35 Clear 73 22.7 70 21 90 90 SE 5 7 30.18 1022 10 16 N/A
12:55 am 00:55 Clear 73 22.6 70 21.2 92 92 SE 6 9 30.21 1023 10 16 N/A
1:15 am 01:15 Clear 72 22.3 70 21 92 92 SE 7 11 30.21 1023 10 16 N/A
1:35 am 01:35 Clear 72 22.2 69 20.5 90 90 SSE 7 11 30.18 1022 7 11 N/A
1:55 am 01:55 Clear 72 22 68 19.8 87 87 SSE 8 13 30.18 1022 10 16 N/A
2:15 am 02:15 Clear 71 21.8 67 19.5 87 87 SSE 8 13 30.18 1022 10 16 N/A
2:35 am 02:35 Clear 71 21.5 67 19.2 87 87 SSE 9 15 30.18 1022 10 16 N/A
2:55 am 02:55 Clear 70 21.2 66 19 87 87 SSE 8 13 30.18 1022 10 16 N/A
3:15 am 03:15 Clear 70 21 67 19.2 90 90 SSE 5 7 30.18 1022 10 16 N/A
3:35 am 03:35 Clear 70 21.1 67 19.3 90 90 SSE 5 7 30.18 1022 10 16 N/A
3:55 am 03:55 Clear 70 21.2 67 19.5 90 90 S 6 9 30.18 1022 10 16 N/A
4:15 am 04:15 Clear 70 21 67 19.5 91 91 S 6 9 30.18 1022 10 16 N/A
4:35 am 04:35 Clear 69 20.7 67 19.3 92 92 S 5 7 30.18 1022 10 16 N/A
4:55 am 04:55 Clear 69 20.5 67 19.2 92 92 SSE 3 6 30.18 1022 10 16 N/A
5:15 am 05:15 Clear 69 20.4 67 19.2 93 93 SE 3 6 30.18 1022 10 16 N/A
5:35 am 05:35 Clear 69 20.5 67 19.5 94 94 SE 7 11 30.18 1022 10 16 N/A
5:55 am 05:55 Clear 69 20.5 67 19.3 93 93 SSE 7 11 30.18 1022 10 16 N/A
6:15 am 06:15 Clear 69 20.3 66 19.1 93 93 SSE 7 11 30.18 1022 10 16 N/A
6:35 am 06:35 Sunny 69 20.3 67 19.2 93 93 SSE 7 11 30.18 1022 10 16 N/A
6:55 am 06:55 Sunny 69 20.5 67 19.2 92 92 SSE 6 9 30.18 1022 10 16 N/A
7:15 am 07:15 Sunny 69 20.7 67 19.4 92 92 SSE 6 9 30.18 1022 10 16 N/A
7:35 am 07:35 Sunny 70 21.2 67 19.6 91 91 SSE 7 11 30.18 1022 10 16 N/A
7:55 am 07:55 Sunny 71 21.9 68 19.9 88 88 SSE 8 13 30.18 1022 10 16 N/A
8:15 am 08:15 Sunny 73 22.8 68 20.1 85 85 S 9 15 30.15 1021 10 16 N/A
8:35 am 08:35 Sunny 74 23.5 69 20.5 83 83 S 9 15 30.12 1020 10 16 N/A
8:55 am 08:55 Sunny 76 24.2 69 20.6 80 80 S 10 17 30.12 1020 10 16 N/A
9:15 am 09:15 Sunny 77 24.8 70 20.9 79 79 S 9 15 30.12 1020 10 16 N/A
9:35 am 09:35 Sunny 78 25.5 69 20.8 75 75 S 12 19 30.12 1020 10 16 N/A
9:55 am 09:55 Sunny 79 26 69 20.7 73 73 S 13 20 30.09 1019 10 16 N/A
10:15 am 10:15 Sunny 80 26.5 70 21 72 72 S 13 20 30.09 1019 10 16 N/A
10:35 am 10:35 Sunny 81 27.1 71 21.5 72 72 S 13 20 30.09 1019 10 16 N/A
10:55 am 10:55 Sunny 82 27.6 70 21.3 69 69 S 12 19 30.09 1019 10 16 N/A
11:15 am 11:15 Sunny 82 28 71 21.4 67 67 S 13 20 30.09 1019 10 16 N/A
11:35 am 11:35 Sunny 83 28.4 71 21.6 67 67 S 10 17 30.09 1019 10 16 N/A
11:55 am 11:55 Sunny 84 28.7 70 21 63 63 SSW 14 22 30.09 1019 10 16 N/A
12:15 pm 12:15 Sunny 84 29 68 20.1 59 59 SSW 15 24 30.09 1019 10 16 N/A
12:35 pm 12:35 Sunny 85 29.4 70 21.1 61 61 S 12 19 30.06 1018 10 16 N/A
12:55 pm 12:55 Sunny 86 29.9 69 20.8 58 58 S 16 26 30.03 1017 10 16 N/A
1:15 pm 13:15 Sunny 86 29.8 69 20.4 57 57 S 12 19 30.03 1017 10 16 N/A
1:35 pm 13:35 Sunny 86 30.2 69 20.4 56 56 S 15 24 30.03 1017 10 16 N/A
1:55 pm 13:55 Sunny 87 30.3 70 21.1 58 58 SSE 17 28 30.03 1017 10 16 N/A
2:15 pm 14:15 Sunny 87 30.3 69 20.6 56 56 S 16 26 30.03 1017 10 16 N/A
2:35 pm 14:35 Sunny 87 30.5 69 20.8 56 56 S 15 24 30.00 1016 10 16 N/A
2:55 pm 14:55 Sunny 87 30.7 71 21.5 58 58 SSE 17 28 30.00 1016 10 16 N/A
3:15 pm 15:15 Partly Cloudy 87 30.8 71 21.5 58 58 S 17 28 30.00 1016 10 16 N/A
3:35 pm 15:35 Sunny 87 30.6 69 20.6 55 55 SSE 21 33 30.00 1016 10 16 N/A
3:55 pm 15:55 Sunny 87 30.6 69 20.8 56 56 SSE 17 28 30.00 1016 10 16 N/A
4:15 pm 16:15 Partly Cloudy 87 30.6 70 21.1 57 57 SSE 18 30 30.00 1016 10 16 N/A
4:35 pm 16:35 Sunny 87 30.7 70 21 56 56 SSE 17 28 29.97 1015 10 16 N/A
4:55 pm 16:55 Sunny 87 30.6 69 20.7 56 56 SSE 16 26 29.97 1015 10 16 N/A
5:15 pm 17:15 Sunny 87 30.5 69 20.5 55 55 SSE 16 26 29.97 1015 10 16 N/A
5:35 pm 17:35 Sunny 87 30.6 69 20.6 55 55 SSE 17 28 29.97 1015 10 16 N/A
5:55 pm 17:55 Sunny 87 30.5 68 20.1 54 54 SSE 17 28 29.97 1015 10 16 N/A
6:15 pm 18:15 Sunny 87 30.3 68 20.1 54 54 SSE 15 24 29.94 1014 10 16 N/A
6:35 pm 18:35 Sunny 86 30.2 68 19.9 54 54 SSE 18 30 29.94 1014 10 16 N/A
6:55 pm 18:55 Sunny 86 30 68 19.9 55 55 SSE 15 24 29.94 1014 10 16 N/A
7:15 pm 19:15 Sunny 85 29.6 67 19.6 55 55 SSE 13 20 29.94 1014 10 16 N/A
7:35 pm 19:35 Sunny 85 29.3 68 19.9 57 57 SSE 10 17 29.94 1014 10 16 N/A
7:55 pm 19:55 Sunny 84 28.7 68 20.2 60 60 SSE 10 17 29.94 1014 10 16 N/A
8:15 pm 20:15 Sunny 82 28 69 20.5 64 64 SSE 9 15 29.94 1014 10 16 N/A
8:35 pm 20:35 Sunny 81 27.4 69 20.5 66 66 SSE 8 13 29.97 1015 10 16 N/A
8:55 pm 20:55 Sunny 80 26.5 69 20.7 71 71 SSE 8 13 29.97 1015 10 16 N/A
9:15 pm 21:15 Clear 78 25.8 69 20.6 73 73 SSE 8 13 29.97 1015 10 16 N/A
9:35 pm 21:35 Clear 77 25.1 69 20.5 76 76 SSE 8 13 29.97 1015 10 16 N/A
9:55 pm 21:55 Clear 76 24.7 69 20.4 77 77 SSE 8 13 29.97 1015 10 16 N/A
10:15 pm 22:15 Clear 76 24.5 68 20 76 76 SSE 8 13 30.03 1017 10 16 N/A
10:35 pm 22:35 Clear 75 24.1 68 20 78 78 SSE 8 13 30.03 1017 10 16 N/A
10:55 pm 22:55 Clear 75 24 67 19.7 77 77 SSE 8 13 30.03 1017 10 16 N/A
11:15 pm 23:15 Clear 76 24.2 67 19.3 74 74 SSE 9 15 30.03 1017 10 16 N/A
11:35 pm 23:35 Clear 75 24 66 19 74 74 SSE 9 15 30.03 1017 10 16 N/A
11:55 pm 23:55 Clear 75 23.7 66 18.7 74 74 SSE 9 15 30.03 1017 10 16 N/A

Powered by AerisWeather